Cleveland, OH

6:12 AM EDT on September 25, 2016 (GMT -0400)
Burke Lakefront

Weather History for KBKL - March, 2014

Change the Weather History Date:

Monday, March 24, 2014

  Actual Average Record
Temperature  
Mean Temperature 24 °F -  
Max Temperature 28 °F 45 °F 73 °F (2016)
Min Temperature 19 °F 33 °F 19 °F (2014)
Degree Days  
Heating Degree Days 42    
Moisture  
Dew Point 14 °F    
Average Humidity 68    
Maximum Humidity 86    
Minimum Humidity 53    
Precipitation  
Precipitation 0.00 in - - ()
Sea Level Pressure  
Sea Level Pressure 30.27 in    
Wind  
Wind Speed 5 mph (SW)    
Max Wind Speed 15 mph    
Max Gust Speed -    
Visibility 8 miles    
Events Snow    
Averages and records for this station are not official NWS values.
T = Trace of Precipitation, MM = Missing Value Source: NWS Daily Summary

Daily Weather History Graph

Daily Weather History Graph

Search for Another Location

Airport or City:

Trip Planner

Search our weather history database for the weather conditions in past years. The results will help you decide how hot, cold, wet, or windy it might be!

Date:

Astronomy

Mar. 24, 2014 Rise Set
Actual Time 7:23 AM EDT 7:43 PM EDT
Civil Twilight 6:55 AM EDT 8:11 PM EDT
Nautical Twilight 6:23 AM EDT 8:43 PM EDT
Astronomical Twilight 5:49 AM EDT 9:17 PM EDT
Moon 2:56 AM EDT (3/24) 1:03 PM EDT (3/24)
Length of Visible Light 13h 15m
Length of Day
12h 20m
Last Quarter, 43% of the Moon is Illuminated
Mar 24
Last Quarter
Mar 30
New
Apr 7
First Quarter
Apr 15
Full
Apr 22
Last Quarter

Hourly Weather History & Observations

Time (EDT) Temp. Windchill Dew Point Humidity Pressure Visibility Wind Dir Wind Speed Gust Speed Precip Events Conditions
12:29 AM 19.4 °F - 15.8 °F 86% 30.33 in 9.0 mi Calm Calm - N/A   Overcast
12:53 AM 21.0 °F - 15.1 °F 78% 30.36 in 6.0 mi Calm Calm - N/A Snow Light Snow
1:53 AM 19.9 °F - 14.0 °F 78% 30.35 in 10.0 mi Calm Calm - N/A   Overcast
2:53 AM 21.0 °F 16.2 °F 14.0 °F 74% 30.35 in 10.0 mi East 3.5 mph - N/A   Overcast
3:53 AM 21.0 °F 16.2 °F 12.9 °F 71% 30.34 in 10.0 mi East 3.5 mph - N/A   Overcast
4:53 AM 21.0 °F 13.4 °F 12.9 °F 71% 30.34 in 10.0 mi SSE 5.8 mph - N/A   Overcast
5:53 AM 19.9 °F 11.1 °F 12.9 °F 74% 30.33 in 10.0 mi SSE 6.9 mph - N/A   Partly Cloudy
6:53 AM 21.0 °F 9.9 °F 14.0 °F 74% 30.33 in 10.0 mi South 10.4 mph - N/A   Overcast
7:53 AM 21.9 °F 12.5 °F 14.0 °F 72% 30.34 in 10.0 mi South 8.1 mph - N/A   Overcast
8:53 AM 21.9 °F 11.7 °F 12.0 °F 66% 30.33 in 10.0 mi SSW 9.2 mph - N/A   Mostly Cloudy
9:53 AM 23.0 °F 11.7 °F 12.9 °F 65% 30.34 in 10.0 mi SW 11.5 mph - N/A   Scattered Clouds
10:53 AM 24.1 °F 13.7 °F 14.0 °F 65% 30.32 in 10.0 mi SW 10.4 mph - N/A   Overcast
11:43 AM 24.8 °F 14.0 °F 15.8 °F 69% 30.28 in 2.5 mi West 11.5 mph - N/A Snow Light Snow
11:53 AM 23.0 °F 14.7 °F 17.1 °F 78% 30.31 in 3.0 mi West 6.9 mph - N/A Snow Light Snow
11:55 AM 23.0 °F 14.7 °F 17.6 °F 80% 30.28 in 3.0 mi WSW 6.9 mph - N/A Snow Light Snow
12:03 PM 23.0 °F 13.9 °F 17.6 °F 80% 30.28 in 3.0 mi West 8.1 mph - N/A Snow Light Snow
12:23 PM 24.8 °F 15.3 °F 15.8 °F 69% 30.27 in 3.0 mi West 9.2 mph - N/A   Haze
12:53 PM 24.1 °F 13.7 °F 18.0 °F 77% 30.29 in 3.0 mi WNW 10.4 mph - N/A Snow Light Snow
1:53 PM 25.0 °F 14.8 °F 17.1 °F 72% 30.28 in 9.0 mi West 10.4 mph - N/A Snow Light Snow
2:53 PM 26.1 °F 16.8 °F 17.1 °F 69% 30.24 in 10.0 mi WNW 9.2 mph - N/A   Scattered Clouds
3:53 PM 28.0 °F 16.5 °F 15.1 °F 58% 30.21 in 10.0 mi West 15.0 mph - N/A   Clear
4:53 PM 28.0 °F 17.5 °F 12.9 °F 53% 30.20 in 10.0 mi WNW 12.7 mph - N/A   Clear
5:53 PM 27.0 °F 17.3 °F 12.0 °F 53% 30.19 in 10.0 mi NW 10.4 mph - N/A   Clear
6:53 PM 26.1 °F 20.5 °F 12.9 °F 58% 30.17 in 10.0 mi WNW 4.6 mph - N/A   Clear
7:53 PM 26.1 °F - 12.9 °F 58% 30.17 in 10.0 mi Calm Calm - N/A   Clear
8:53 PM 27.0 °F 19.5 °F 12.0 °F 53% 30.15 in 10.0 mi South 6.9 mph - N/A   Partly Cloudy
9:53 PM 27.0 °F 18.7 °F 12.0 °F 53% 30.14 in 10.0 mi SSE 8.1 mph - N/A   Clear
10:53 PM 26.1 °F 16.8 °F 12.0 °F 55% 30.12 in 10.0 mi SSE 9.2 mph - N/A   Mostly Cloudy
11:53 PM 26.1 °F 18.4 °F 12.0 °F 55% 30.11 in 10.0 mi SSE 6.9 mph - N/A   Overcast